Other Public Products
Issued by NWS Charleston, SC

Home | Current Version | Previous Version | Text Only | Print | Product List | Glossary On
Versions: 1 2 3 4 5 6 7 8 9 10 11 12 13 14 15 16 17 18 19 20 21 22 23 24 25 26 27 28 29 30 31 32 33 34 35 36 37 38 39 40 41 42 43 44 45 46 47 48 49 50
000
FPUS82 KCHS 202127
OPUCHS

TEST...KCHS/KSAV Gateway Observations...TEST
National Weather Service Charleston SC
500 PM EDT SUN AUG 20 2017

NOTE: "fair" indicates few or no clouds below 12,000 feet with no
significant weather and/or obstructions to visibility.

SCZ050-WAZ558-NCZ071-TXZ119-213-PAZ071-DCZ001-FLZ074-172-MI076-
NYZ176-178-MAZ016-IL014-TNZ027-NJZ106-GAZ044-MD014-202200-

...Gateway Observations for Charleston International...

CITY           SKY/WX    TMP DP  RH WIND       PRES   REMARKS
Chas Airport   PTSUNNY   86  78  77 S8        30.04F HX  98
Seattle        CLOUDY    72  52  49 W8        30.14F
Charlotte      MOSUNNY   92  65  40 E8        30.08F HX  94
Dallas DFW     PTSUNNY   97  70  41 SE9       29.94F HX 103
Dallas Love    MOSUNNY   98  69  38 SE14      29.95F HX 104
Philladelphia  MOSUNNY   85  58  39 VRB6      30.09S
Wash National  MOSUNNY   87  63  44 N10       30.11S
Baltimore      SUNNY     84  60  44 W6        30.10S
Miami          CLOUDY    87  76  69 NE12      30.00F HX  97
Detroit        PTSUNNY   84  63  49 S10       30.06F
Newark         PTSUNNY   85  57  38 W10G20    30.06S
Laguardia      MOSUNNY   83  60  45 N10       30.05S
J F K          MOSUNNY   84  59  42 N9        30.06S
Boston Logan   MOSUNNY   83  54  36 W15G21    29.99R
Ft. Lauderdale PTSUNNY   88  76  67 NE12      30.00S HX  99
Chicago O`Hare CLOUDY    86  66  51 SW9       30.00S
Chicago Midway CLOUDY    85  69  58 SW12G21   30.00F
Houston Bush   MOSUNNY   95  71  45 E7        29.96F HX 102
Houston Hobby  CLOUDY    88  73  61 S8        29.97S HX  95
Nashville      MOSUNNY   94  57  28 E5        30.06S HX  92
Atlanta        MOSUNNY   90  65  43 E6        30.07F HX  92

$$

GAZ044-118-TXZ119-213-NCZ071-DCZ001-MDZ014-506-PAZ021-071-NJZ106-
NYZ176-178-MAZ106-OHZ011-021-055-MIZ076-KYZ091-ILZ014-INZ047-
MNZ060-ONZ431-202200-

...Gateway Observations for Savannah International...

CITY           SKY/WX    TMP DP  RH WIND       PRES   REMARKS
Savannah Arpt  CLOUDY    88  77  69 SE8       30.04S HX 100
Atlanta        MOSUNNY   90  65  43 E6        30.07F HX  92
Charlotte      MOSUNNY   92  65  40 E8        30.08F HX  94
Dallas DFW     PTSUNNY   97  70  41 SE9       29.94F HX 103
Houston Bush   MOSUNNY   95  71  45 E7        29.96F HX 102
Wash National  MOSUNNY   87  63  44 N10       30.11S
Wash Dulles    SUNNY     85  65  51 VRB3      30.11F
Baltimore      SUNNY     84  60  44 W6        30.10S
Philadelphia   MOSUNNY   85  58  39 VRB6      30.09S
Newark         PTSUNNY   85  57  38 W10G20    30.06S
Laguardia      MOSUNNY   83  60  45 N10       30.05S
J F K          MOSUNNY   84  59  42 N9        30.06S
Boston         MOSUNNY   83  54  36 W15G21    29.99R
Pittsburg      MOSUNNY   82  57  42 S6        30.13S
Akron          MOSUNNY   86  58  38 S10       30.11F
Cleveland      PTSUNNY   87  61  41 NE10      30.09F
Cincinnati     PTSUNNY   87  69  54 SW7       30.06F HX  91
Columbus       SUNNY     86  69  57 SE6       30.05S HX  90
Detroit        PTSUNNY   84  63  49 S10       30.06F
Chicago O`Hare CLOUDY    86  66  51 SW9       30.00S
Minneapolis    MOSUNNY   86  67  52 SW7       29.93R
Indianapolis   PTSUNNY   88  61  40 S9        30.03S
Toronto Canada MOSUNNY   82  61  47 W13G21    30.03F

$$




USA.gov is the U.S. government's official web portal to all federal, state and local government web resources and services.